Time,TemperatureF,DewpointF,PressureIn,WindDirection,WindDirectionDegrees,WindSpeedMPH,WindSpeedGustMPH,Humidity,HourlyPrecipIn,Conditions,Clouds,dailyrainin,SoftwareType,DateUTC
2013-02-23 00:01:00,36.0,-99.9,-100.00,NNE,16,0.0,1.0,-999,-99.99,,,-99.99,,2013-02-23 07:01:00,
2013-02-23 00:30:00,39.0,-99.9,-100.00,North,7,4.0,4.0,-999,-99.99,,,-99.99,,2013-02-23 07:30:00,
2013-02-23 00:32:00,37.0,-99.9,-100.00,NNE,23,1.0,2.0,-999,-99.99,,,-99.99,,2013-02-23 07:32:00,
2013-02-23 00:42:00,37.0,-99.9,-100.00,NNE,23,1.0,2.0,-999,-99.99,,,-99.99,,2013-02-23 07:42:00,
2013-02-23 00:52:00,40.0,-99.9,-100.00,ENE,70,4.0,7.0,-999,-99.99,,,-99.99,,2013-02-23 07:52:00,
2013-02-23 01:01:00,39.0,-99.9,-100.00,North,7,4.0,4.0,-999,-99.99,,,-99.99,,2013-02-23 08:01:00,
2013-02-23 01:10:00,36.0,-99.9,-100.00,NNW,330,0.0,2.0,-999,-99.99,,,-99.99,,2013-02-23 08:10:00,
2013-02-23 01:11:00,39.0,-99.9,-100.00,North,7,4.0,4.0,-999,-99.99,,,-99.99,,2013-02-23 08:11:00,
2013-02-23 01:22:00,39.0,-99.9,-100.00,North,7,4.0,4.0,-999,-99.99,,,-99.99,,2013-02-23 08:22:00,
2013-02-23 01:53:00,36.0,-99.9,-100.00,NNW,330,0.0,2.0,-999,-99.99,,,-99.99,,2013-02-23 08:53:00,
2013-02-23 02:00:00,37.0,-99.9,-100.00,NE,54,3.0,4.0,-999,-99.99,,,-99.99,,2013-02-23 09:00:00,
2013-02-23 02:02:00,36.0,-99.9,-100.00,NNW,330,0.0,2.0,-999,-99.99,,,-99.99,,2013-02-23 09:02:00,
2013-02-23 02:32:00,37.0,-99.9,-100.00,NE,54,3.0,4.0,-999,-99.99,,,-99.99,,2013-02-23 09:32:00,
2013-02-23 02:42:00,37.0,-99.9,-100.00,NE,54,3.0,4.0,-999,-99.99,,,-99.99,,2013-02-23 09:42:00,
2013-02-23 02:52:00,37.0,-99.9,-100.00,NE,54,3.0,4.0,-999,-99.99,,,-99.99,,2013-02-23 09:52:00,
2013-02-23 04:32:00,31.0,-99.9,-100.00,NE,48,1.0,2.0,-999,-99.99,,,-99.99,,2013-02-23 11:32:00,
2013-02-23 04:42:00,31.0,-99.9,-100.00,NE,48,1.0,2.0,-999,-99.99,,,-99.99,,2013-02-23 11:42:00,
2013-02-23 05:02:00,30.0,-99.9,-100.00,NE,45,1.0,2.0,-999,-99.99,,,-99.99,,2013-02-23 12:02:00,
2013-02-23 05:11:00,30.0,-99.9,-100.00,NE,45,1.0,2.0,-999,-99.99,,,-99.99,,2013-02-23 12:11:00,
2013-02-23 06:22:00,29.0,-99.9,-100.00,WNW,301,1.0,1.0,-999,-99.99,,,-99.99,,2013-02-23 13:22:00,
2013-02-23 06:32:00,29.0,-99.9,-100.00,WNW,302,1.0,2.0,-999,-99.99,,,-99.99,,2013-02-23 13:32:00,
2013-02-23 06:42:00,29.0,-99.9,-100.00,WNW,302,1.0,2.0,-999,-99.99,,,-99.99,,2013-02-23 13:42:00,
2013-02-23 06:52:00,27.0,-99.9,-100.00,NW,324,1.0,2.0,-999,-99.99,,,-99.99,,2013-02-23 13:52:00,
2013-02-23 07:11:00,27.0,-99.9,-100.00,NW,324,1.0,2.0,-999,-99.99,,,-99.99,,2013-02-23 14:11:00,
2013-02-23 08:22:00,39.0,-99.9,-100.00,East,98,1.0,2.0,-999,-99.99,,,-99.99,,2013-02-23 15:22:00,
2013-02-23 08:32:00,39.0,-99.9,-100.00,East,98,1.0,2.0,-999,-99.99,,,-99.99,,2013-02-23 15:32:00,
2013-02-23 11:22:00,62.0,-99.9,-100.00,SSW,202,1.0,1.0,-999,-99.99,,,-99.99,,2013-02-23 18:22:00,
2013-02-23 11:52:00,67.0,-99.9,-100.00,South,177,0.0,2.0,-999,-99.99,,,-99.99,,2013-02-23 18:52:00,
2013-02-23 14:02:00,65.0,-99.9,-100.00,NW,312,1.0,2.0,-999,-99.99,,,-99.99,,2013-02-23 21:02:00,
2013-02-23 14:32:00,65.0,-99.9,-100.00,WSW,238,0.0,2.0,-999,-99.99,,,-99.99,,2013-02-23 21:32:00,
2013-02-23 14:40:00,63.0,-99.9,-100.00,North,10,2.0,2.0,-999,-99.99,,,-99.99,,2013-02-23 21:40:00,
2013-02-23 14:52:00,65.0,-99.9,-100.00,SSE,167,0.0,3.0,-999,-99.99,,,-99.99,,2013-02-23 21:52:00,
2013-02-23 15:22:00,63.0,-99.9,-100.00,North,10,2.0,2.0,-999,-99.99,,,-99.99,,2013-02-23 22:22:00,
2013-02-23 15:32:00,63.0,-99.9,-100.00,North,10,2.0,2.0,-999,-99.99,,,-99.99,,2013-02-23 22:32:00,
2013-02-23 16:02:00,64.0,-99.9,-100.00,NNW,328,2.0,3.0,-999,-99.99,,,-99.99,,2013-02-23 23:02:00,
2013-02-23 16:11:00,64.0,-99.9,-100.00,NNW,328,2.0,3.0,-999,-99.99,,,-99.99,,2013-02-23 23:11:00,
2013-02-23 16:20:00,62.0,-99.9,-100.00,WNW,284,2.0,2.0,-999,-99.99,,,-99.99,,2013-02-23 23:20:00,
2013-02-23 16:22:00,64.0,-99.9,-100.00,NNW,328,2.0,3.0,-999,-99.99,,,-99.99,,2013-02-23 23:22:00,
2013-02-23 17:02:00,62.0,-99.9,-100.00,WNW,284,2.0,2.0,-999,-99.99,,,-99.99,,2013-02-24 00:02:00,
2013-02-23 17:11:00,62.0,-99.9,-100.00,WNW,284,2.0,2.0,-999,-99.99,,,-99.99,,2013-02-24 00:11:00,
2013-02-23 18:01:00,53.0,-99.9,-100.00,West,281,1.0,2.0,-999,-99.99,,,-99.99,,2013-02-24 01:01:00,
2013-02-23 18:11:00,53.0,-99.9,-100.00,West,281,1.0,2.0,-999,-99.99,,,-99.99,,2013-02-24 01:11:00,
2013-02-23 19:01:00,47.0,-99.9,-100.00,NNE,12,0.0,1.0,-999,-99.99,,,-99.99,,2013-02-24 02:01:00,
2013-02-23 20:00:00,47.0,-99.9,-100.00,East,88,1.0,1.0,-999,-99.99,,,-99.99,,2013-02-24 03:00:00,
2013-02-23 20:32:00,47.0,-99.9,-100.00,East,88,1.0,1.0,-999,-99.99,,,-99.99,,2013-02-24 03:32:00,
2013-02-23 20:42:00,47.0,-99.9,-100.00,East,88,1.0,1.0,-999,-99.99,,,-99.99,,2013-02-24 03:42:00,
2013-02-23 20:52:00,47.0,-99.9,-100.00,East,88,1.0,1.0,-999,-99.99,,,-99.99,,2013-02-24 03:52:00,
2013-02-23 21:22:00,43.0,-99.9,-100.00,ENE,60,1.0,1.0,-999,-99.99,,,-99.99,,2013-02-24 04:22:00,
2013-02-23 21:52:00,44.0,-99.9,-100.00,NNE,17,1.0,2.0,-999,-99.99,,,-99.99,,2013-02-24 04:52:00,
2013-02-23 23:22:00,41.0,-99.9,-100.00,NNE,12,0.0,2.0,-999,-99.99,,,-99.99,,2013-02-24 06:22:00,